• In Denmark
  • List of Countries
  • For 7 days
  • Water Temperature
  • Satellite Maps
  • Weather Map
  • Weather Widgets
  • user-avatar
    Login

    Hourly Weather Naftalan

    Today, 26 February, Monday

    Time Temperature Precipitation Wind Pressure Humidity
    00:00 +9°C° 0 mm 3 mps 758 mmHg 88%
    01:00 +9°C° 0 mm 3 mps 758 mmHg 87%
    02:00 +8°C° 0 mm 2 mps 758 mmHg 87%
    03:00 +8°C° 0 mm 2 mps 758 mmHg 87%
    04:00 +9°C° 0 mm 1 mps 758 mmHg 86%
    05:00 +9°C° 0 mm 1 mps 758 mmHg 86%
    06:00 +9°C° 0 mm 1 mps 759 mmHg 86%
    07:00 +10°C° 0 mm 1 mps 759 mmHg 83%
    08:00 +10°C° 0 mm 1 mps 759 mmHg 80%
    09:00 +11°C° 0 mm 1 mps 759 mmHg 78%
    10:00 +13°C° 0 mm 2 mps 759 mmHg 73%
    11:00 +13°C° 0 mm 3 mps 759 mmHg 67%
    12:00 +14°C° 0 mm 3 mps 759 mmHg 62%
    13:00 +14°C° 0 mm 4 mps 759 mmHg 61%
    14:00 +15°C° 0 mm 4 mps 759 mmHg 59%
    15:00 +15°C° 0 mm 5 mps 759 mmHg 58%
    16:00 +13°C° 0 mm 5 mps 760 mmHg 65%
    17:00 +11°C° 0 mm 6 mps 761 mmHg 72%
    18:00 +9°C° 0 mm 7 mps 761 mmHg 79%
    19:00 +9°C° 0 mm 7 mps 762 mmHg 79%
    20:00 +8°C° 0 mm 6 mps 763 mmHg 78%
    21:00 +8°C° 0 mm 6 mps 763 mmHg 77%
    22:00 +8°C° 0 mm 6 mps 763 mmHg 76%
    23:00 +8°C° 0 mm 6 mps 763 mmHg 75%

    Tomorrow, 27 February, Tuesday

    Time Temperature Precipitation Wind Pressure Humidity
    00:00 +8°C° 0 mm 6 mps 764 mmHg 74%
    01:00 +7°C° 0 mm 6 mps 764 mmHg 76%
    02:00 +7°C° 0 mm 5 mps 764 mmHg 78%
    03:00 +7°C° 0 mm 5 mps 764 mmHg 80%
    04:00 +6°C° 0 mm 5 mps 764 mmHg 81%
    05:00 +6°C° 0 mm 5 mps 764 mmHg 83%
    06:00 +6°C° 0 mm 5 mps 764 mmHg 84%
    07:00 +6°C° 0 mm 5 mps 764 mmHg 82%
    08:00 +7°C° 0 mm 5 mps 764 mmHg 80%
    09:00 +8°C° 0 mm 4 mps 764 mmHg 77%
    10:00 +8°C° 0 mm 4 mps 764 mmHg 75%
    11:00 +10°C° 0 mm 4 mps 764 mmHg 74%
    12:00 +10°C° 0 mm 4 mps 763 mmHg 72%
    13:00 +10°C° 0 mm 3 mps 763 mmHg 72%
    14:00 +10°C° 0 mm 3 mps 763 mmHg 73%
    15:00 +12°C° 0 mm 2 mps 762 mmHg 73%
    16:00 +10°C° 0 mm 2 mps 763 mmHg 76%
    17:00 +9°C° 0 mm 2 mps 763 mmHg 80%
    18:00 +9°C° 0 mm 2 mps 763 mmHg 83%
    19:00 +9°C° 0 mm 2 mps 763 mmHg 86%
    20:00 +8°C° 0 mm 2 mps 763 mmHg 88%
    21:00 +8°C° 0 mm 2 mps 763 mmHg 90%
    22:00 +8°C° 0 mm 2 mps 763 mmHg 91%
    23:00 +7°C° 0 mm 2 mps 763 mmHg 92%

    Day after tomorrow, 28 February, Wednesday

    Time Temperature Precipitation Wind Pressure Humidity
    00:00 +7°C° 0 mm 2 mps 763 mmHg 93%
    01:00 +7°C° 0 mm 2 mps 762 mmHg 93%
    02:00 +8°C° 0 mm 1 mps 762 mmHg 93%
    03:00 +8°C° 0 mm 1 mps 762 mmHg 93%
    04:00 +8°C° 0 mm 1 mps 763 mmHg 93%
    05:00 +7°C° 0 mm 2 mps 763 mmHg 92%
    06:00 +7°C° 0 mm 2 mps 763 mmHg 91%
    07:00 +8°C° 0 mm 2 mps 764 mmHg 84%
    08:00 +10°C° 0 mm 2 mps 764 mmHg 76%
    09:00 +12°C° 0 mm 2 mps 765 mmHg 69%
    10:00 +13°C° 0 mm 2 mps 765 mmHg 63%
    11:00 +14°C° 0 mm 2 mps 765 mmHg 58%
    12:00 +14°C° 0 mm 3 mps 765 mmHg 52%
    13:00 +14°C° 0 mm 4 mps 765 mmHg 54%
    14:00 +14°C° 0 mm 5 mps 765 mmHg 56%
    15:00 +14°C° 0 mm 5 mps 764 mmHg 58%
    16:00 +13°C° 0 mm 5 mps 765 mmHg 64%
    17:00 +10°C° 0 mm 5 mps 765 mmHg 70%
    18:00 +9°C° 0 mm 5 mps 765 mmHg 76%
    19:00 +8°C° 0 mm 4 mps 766 mmHg 78%
    20:00 +8°C° 0 mm 4 mps 766 mmHg 81%
    21:00 +7°C° 0 mm 4 mps 766 mmHg 83%
    22:00 +7°C° 0 mm 4 mps 766 mmHg 85%
    23:00 +8°C° 0 mm 3 mps 766 mmHg 86%

    1 March, Thursday

    Time Temperature Precipitation Wind Pressure Humidity
    00:00 +8°C° 0 mm 3 mps 766 mmHg 88%
    01:00 +8°C° 0 mm 3 mps 765 mmHg 90%
    02:00 +7°C° 0 mm 3 mps 765 mmHg 91%
    03:00 +7°C° 0 mm 3 mps 765 mmHg 92%
    04:00 +7°C° 0 mm 3 mps 765 mmHg 92%
    05:00 +7°C° 0 mm 3 mps 764 mmHg 93%
    06:00 +7°C° 0 mm 3 mps 764 mmHg 93%
    07:00 +8°C° 0 mm 3 mps 764 mmHg 88%
    08:00 +9°C° 0 mm 3 mps 764 mmHg 83%
    09:00 +10°C° 0 mm 3 mps 764 mmHg 78%
    10:00 +11°C° 0 mm 3 mps 763 mmHg 74%
    11:00 +12°C° 0 mm 3 mps 763 mmHg 70%
    12:00 +13°C° 0 mm 3 mps 762 mmHg 66%
    13:00 +13°C° 0 mm 3 mps 762 mmHg 66%
    14:00 +13°C° 0 mm 3 mps 761 mmHg 66%
    15:00 +13°C° 0 mm 3 mps 760 mmHg 66%
    16:00 +12°C° 0 mm 3 mps 760 mmHg 72%
    17:00 +11°C° 0 mm 3 mps 760 mmHg 78%
    18:00 +10°C° 0 mm 3 mps 760 mmHg 84%
    19:00 +10°C° 0 mm 3 mps 760 mmHg 85%
    20:00 +10°C° 0 mm 3 mps 760 mmHg 86%
    21:00 +9°C° 0 mm 3 mps 760 mmHg 87%
    22:00 +9°C° 0 mm 3 mps 760 mmHg 87%
    23:00 +9°C° 0 mm 2 mps 760 mmHg 87%

    2 March, Friday

    Time Temperature Precipitation Wind Pressure Humidity
    00:00 +9°C° 0 mm 2 mps 759 mmHg 87%
    01:00 +9°C° 0 mm 2 mps 759 mmHg 87%
    02:00 +10°C° 0 mm 1 mps 759 mmHg 87%
    03:00 +10°C° 0 mm 1 mps 759 mmHg 87%
    04:00 +10°C° 0 mm 1 mps 759 mmHg 87%
    05:00 +10°C° 0 mm 1 mps 759 mmHg 87%
    06:00 +10°C° 0 mm 1 mps 759 mmHg 87%
    07:00 +10°C° 0 mm 1 mps 760 mmHg 85%
    08:00 +11°C° 0 mm 1 mps 760 mmHg 83%
    09:00 +12°C° 0 mm 1 mps 760 mmHg 81%
    10:00 +13°C° 0 mm 2 mps 760 mmHg 75%
    11:00 +13°C° 0 mm 4 mps 760 mmHg 69%
    12:00 +14°C° 0 mm 5 mps 760 mmHg 64%
    13:00 +14°C° 0 mm 5 mps 760 mmHg 61%
    14:00 +14°C° 0 mm 6 mps 761 mmHg 59%
    15:00 +14°C° 0 mm 7 mps 761 mmHg 57%
    16:00 +12°C° 0 mm 7 mps 762 mmHg 61%
    17:00 +10°C° 0 mm 7 mps 763 mmHg 66%
    18:00 +9°C° 0 mm 8 mps 763 mmHg 70%
    19:00 +7°C° 0 mm 8 mps 764 mmHg 72%
    20:00 +6°C° 0 mm 7 mps 765 mmHg 74%
    21:00 +5°C° 0 mm 7 mps 766 mmHg 76%
    22:00 +5°C° 0 mm 7 mps 766 mmHg 76%
    23:00 +5°C° 0 mm 6 mps 766 mmHg 77%

    3 March, Saturday

    Time Temperature Precipitation Wind Pressure Humidity
    00:00 +4°C° 0 mm 6 mps 766 mmHg 77%
    01:00 +5°C° 0 mm 5 mps 766 mmHg 78%
    02:00 +5°C° 0 mm 5 mps 766 mmHg 79%
    03:00 +3°C° 0 mm 5 mps 766 mmHg 80%
    04:00 +3°C° 0 mm 5 mps 767 mmHg 81%
    05:00 +3°C° 0 mm 5 mps 767 mmHg 81%
    06:00 +4°C° 0 mm 4 mps 767 mmHg 82%
    07:00 +5°C° 0 mm 4 mps 768 mmHg 78%
    08:00 +6°C° 0 mm 4 mps 768 mmHg 73%
    09:00 +7°C° 0 mm 4 mps 768 mmHg 69%
    10:00 +8°C° 0 mm 4 mps 768 mmHg 69%
    11:00 +8°C° 0 mm 4 mps 767 mmHg 68%
    12:00 +8°C° 0 mm 4 mps 767 mmHg 68%
    13:00 +10°C° 0 mm 4 mps 767 mmHg 67%
    14:00 +10°C° 0 mm 4 mps 766 mmHg 66%
    15:00 +9°C° 0 mm 5 mps 766 mmHg 66%
    16:00 +8°C° 0 mm 4 mps 766 mmHg 70%
    17:00 +8°C° 0 mm 4 mps 766 mmHg 74%
    18:00 +7°C° 0 mm 4 mps 766 mmHg 78%
    19:00 +6°C° 0 mm 4 mps 767 mmHg 81%
    20:00 +6°C° 0 mm 4 mps 767 mmHg 84%
    21:00 +6°C° 0 mm 4 mps 767 mmHg 86%
    22:00 +6°C° 0 mm 4 mps 767 mmHg 86%
    23:00 +7°C° 0 mm 3 mps 766 mmHg 86%
    Show more